Tracking 25963 objects as of 14-Aug-2022
HD Live streaming from Space Station
objects crossing your sky now

YAOGAN-34

Track YAOGAN-34 now!
10-day predictions


NORAD ID: 48340
Int'l Code: 2021-037A
Perigee: 1,060.7 km
Apogee: 1,133.2 km
Inclination: 63.4 °
Period: 107.0 minutes
Semi major axis: 7467 km
RCS: Unknown
Launch date: April 30, 2021
Source: People's Republic of China (PRC)
Launch site: Jiuquan Satellite Launch Center, China (JSC)
aabbcc
Your satellite tracking list
Your tracking list is empty




NASA's NSSDC Master Catalog

Two Line Element Set (TLE):
1 48340U 21037A   22225.68770573 -.00000031  00000-0  10000-3 0  9997
2 48340  63.4069 150.6636 0048576 353.6813   6.3596 13.45241641 63273
Source of the keplerian elements: AFSPC